| time (UTC) | temp F | wind direction | speed knots | gust knots | rain 1hr in | rain 24hr in | rain mn in | humidity % | barometer mb |
| 20260510214409 | 63 | 347 | 6.1 | 7.0 | 0.00 | 0.00 | 0.00 | 35 | 1021.7 |
| 20260510213906 | 62 | 32 | 2.6 | 4.3 | 0.00 | 0.00 | 0.00 | 33 | 1021.7 |
| 20260510213403 | 63 | 94 | 0.9 | 0.9 | 0.00 | 0.00 | 0.00 | 34 | 1021.5 |
| 20260510212859 | 62 | 169 | 1.7 | 1.7 | 0.00 | 0.00 | 0.00 | 36 | 1021.7 |
| 20260510212356 | 63 | 27 | 1.7 | 1.7 | 0.00 | 0.00 | 0.00 | 35 | 1021.5 |
| 20260510211853 | 64 | 189 | 2.6 | 2.6 | 0.00 | 0.00 | 0.00 | 35 | 1021.8 |
| 20260510211350 | 62 | 279 | 0.9 | 1.7 | 0.00 | 0.00 | 0.00 | 38 | 1021.7 |
| 20260510210845 | 62 | 224 | 1.7 | 1.7 | 0.00 | 0.00 | 0.00 | 35 | 1021.9 |
| 20260510210339 | 63 | 186 | 3.5 | 4.3 | 0.00 | 0.00 | 0.00 | 41 | 1021.8 |
| 20260510205834 | 62 | 319 | 4.3 | 5.2 | 0.00 | 0.00 | 0.00 | 38 | 1022.2 |
| 20260510205329 | 61 | 82 | 2.6 | 2.6 | 0.00 | 0.00 | 0.00 | 36 | 1022.0 |
| 20260510204826 | 61 | 248 | 2.6 | 2.6 | 0.00 | 0.00 | 0.00 | 39 | 1022.2 |
| 20260510204322 | 60 | 307 | 1.7 | 1.7 | 0.00 | 0.00 | 0.00 | 36 | 1021.9 |
| 20260510203819 | 60 | 306 | 2.6 | 2.6 | 0.00 | 0.00 | 0.00 | 40 | 1022.0 |
| 20260510203317 | 60 | 343 | 3.5 | 4.3 | 0.00 | 0.00 | 0.00 | 37 | 1022.0 |
| 20260510202816 | 61 | 64 | 0.9 | 0.9 | 0.00 | 0.00 | 0.00 | 37 | 1022.2 |
| 20260510202312 | 60 | 99 | 2.6 | 2.6 | 0.00 | 0.00 | 0.00 | 37 | 1021.9 |
| 20260510201809 | 60 | 193 | 3.5 | 4.3 | 0.00 | 0.00 | 0.00 | 39 | 1022.2 |
| 20260510201306 | 60 | 95 | 0.9 | 0.9 | 0.00 | 0.00 | 0.00 | 37 | 1022.3 |
| 20260510200803 | 60 | 74 | 0.9 | 1.7 | 0.00 | 0.00 | 0.00 | 41 | 1022.2 |
| 20260510200301 | 60 | 47 | 0.9 | 1.7 | 0.00 | 0.00 | 0.00 | 39 | 1022.5 |
| 20260510195756 | 59 | 214 | 0.0 | 0.9 | 0.00 | 0.00 | 0.00 | 41 | 1022.5 |
| 20260510195253 | 59 | 270 | 2.6 | 2.6 | 0.00 | 0.00 | 0.00 | 38 | 1022.4 |
| 20260510194753 | 60 | 7 | 2.6 | 4.3 | 0.00 | 0.00 | 0.00 | 40 | 1022.7 |
| 20260510194250 | 59 | 5 | 1.7 | 2.6 | 0.00 | 0.00 | 0.00 | 42 | 1022.6 |
| 20260510193745 | 59 | 187 | 5.2 | 6.1 | 0.00 | 0.00 | 0.00 | 36 | 1022.5 |
| 20260510193240 | 59 | 286 | 2.6 | 4.3 | 0.00 | 0.00 | 0.00 | 38 | 1022.7 |
| 20260510192736 | 59 | 205 | 1.7 | 2.6 | 0.00 | 0.00 | 0.00 | 40 | 1022.6 |
| 20260510192232 | 60 | 263 | 2.6 | 4.3 | 0.00 | 0.00 | 0.00 | 42 | 1022.5 |
| 20260510191728 | 59 | 236 | 4.3 | 5.2 | 0.00 | 0.00 | 0.00 | 38 | 1022.5 |
| 20260510191224 | 58 | 324 | 1.7 | 1.7 | 0.00 | 0.00 | 0.00 | 41 | 1022.8 |
| 20260510190722 | 58 | 60 | 3.5 | 5.2 | 0.00 | 0.00 | 0.00 | 43 | 1022.7 |
| 20260510190219 | 58 | 95 | 4.3 | 5.2 | 0.00 | 0.00 | 0.00 | 41 | 1022.8 |
| 20260510185716 | 59 | 312 | 4.3 | 5.2 | 0.00 | 0.00 | 0.00 | 38 | 1023.1 |
| 20260510185214 | 57 | 346 | 2.6 | 4.3 | 0.00 | 0.00 | 0.00 | 41 | 1023.1 |
| 20260510184710 | 58 | 329 | 7.0 | 7.8 | 0.00 | 0.00 | 0.00 | 37 | 1023.1 |
| 20260510184207 | 58 | 280 | 3.5 | 4.3 | 0.00 | 0.00 | 0.00 | 42 | 1023.0 |
| 20260510183702 | 58 | 351 | 3.5 | 5.2 | 0.00 | 0.00 | 0.00 | 45 | 1023.1 |
| 20260510183157 | 57 | 267 | 3.5 | 4.3 | 0.00 | 0.00 | 0.00 | 40 | 1023.2 |
| 20260510182654 | 57 | 291 | 4.3 | 5.2 | 0.00 | 0.00 | 0.00 | 43 | 1023.3 |
| 20260510182149 | 57 | 312 | 6.1 | 7.8 | 0.00 | 0.00 | 0.00 | 41 | 1023.4 |
| 20260510181647 | 58 | 313 | 2.6 | 4.3 | 0.00 | 0.00 | 0.00 | 43 | 1023.4 |
| 20260510181143 | 58 | 204 | 0.9 | 2.6 | 0.00 | 0.00 | 0.00 | 44 | 1023.5 |
| 20260510180639 | 57 | 103 | 0.0 | 0.0 | 0.00 | 0.00 | 0.00 | 41 | 1023.1 |
| 20260510180137 | 57 | 214 | 3.5 | 5.2 | 0.00 | 0.00 | 0.00 | 43 | 1023.4 |
| 20260510175633 | 56 | 308 | 4.3 | 4.3 | 0.00 | 0.00 | 0.00 | 43 | 1023.2 |
| 20260510175128 | 56 | 351 | 4.3 | 5.2 | 0.00 | 0.00 | 0.00 | 43 | 1023.3 |
| 20260510174626 | 57 | 278 | 5.2 | 6.1 | 0.00 | 0.00 | 0.00 | 44 | 1023.5 |
| 20260510174124 | 57 | 29 | 4.3 | 6.1 | 0.00 | 0.00 | 0.00 | 45 | 1023.3 |
| 20260510173619 | 56 | 286 | 2.6 | 6.1 | 0.00 | 0.00 | 0.00 | 47 | 1023.3 |
| 20260510173116 | 55 | 300 | 0.9 | 1.7 | 0.00 | 0.00 | 0.00 | 46 | 1023.3 |
| 20260510172611 | 55 | 290 | 4.3 | 5.2 | 0.00 | 0.00 | 0.00 | 43 | 1023.6 |
| 20260510172108 | 55 | 337 | 2.6 | 4.3 | 0.00 | 0.00 | 0.00 | 44 | 1023.2 |
| 20260510171604 | 55 | 280 | 4.3 | 4.3 | 0.00 | 0.00 | 0.00 | 45 | 1023.2 |
| 20260510171102 | 55 | 277 | 7.0 | 7.8 | 0.00 | 0.00 | 0.00 | 42 | 1023.5 |
| 20260510170558 | 55 | 162 | 2.6 | 4.3 | 0.00 | 0.00 | 0.00 | 43 | 1023.3 |
| 20260510170055 | 56 | 57 | 0.9 | 0.9 | 0.00 | 0.00 | 0.00 | 44 | 1023.5 |
| 20260510165550 | 55 | 19 | 4.3 | 5.2 | 0.00 | 0.00 | 0.00 | 44 | 1023.5 |
| 20260510165047 | 55 | 340 | 1.7 | 1.7 | 0.00 | 0.00 | 0.00 | 50 | 1023.4 |
| 20260510164545 | 54 | 23 | 5.2 | 7.0 | 0.00 | 0.00 | 0.00 | 46 | 1023.3 |
| 20260510164041 | 53 | 80 | 0.9 | 0.9 | 0.00 | 0.00 | 0.00 | 46 | 1023.3 |
| 20260510163536 | 54 | 50 | 2.6 | 2.6 | 0.00 | 0.00 | 0.00 | 45 | 1023.5 |
| 20260510163033 | 54 | 65 | 1.7 | 1.7 | 0.00 | 0.00 | 0.00 | 46 | 1023.4 |
| 20260510162528 | 54 | 155 | 1.7 | 1.7 | 0.00 | 0.00 | 0.00 | 50 | 1023.4 |
| 20260510162024 | 53 | 133 | 0.9 | 0.9 | 0.00 | 0.00 | 0.00 | 47 | 1023.6 |
| 20260510161520 | 53 | 290 | 2.6 | 2.6 | 0.00 | 0.00 | 0.00 | 46 | 1023.6 |
| 20260510161017 | 53 | 8 | 2.6 | 5.2 | 0.00 | 0.00 | 0.00 | 48 | 1023.6 |
| 20260510160509 | 53 | 118 | 0.0 | 0.9 | 0.00 | 0.00 | 0.00 | 48 | 1023.5 |
| 20260510160008 | 53 | 83 | 3.5 | 4.3 | 0.00 | 0.00 | 0.00 | 46 | 1023.6 |
| 20260510155504 | 52 | 59 | 0.9 | 0.9 | 0.00 | 0.00 | 0.00 | 49 | 1023.3 |
| 20260510155000 | 53 | 254 | 2.6 | 5.2 | 0.00 | 0.00 | 0.00 | 49 | 1023.2 |
| 20260510154451 | 54 | 105 | 2.6 | 4.3 | 0.00 | 0.00 | 0.00 | 54 | 1023.3 |
| 20260510153950 | 53 | 146 | 1.7 | 1.7 | 0.00 | 0.00 | 0.00 | 51 | 1023.4 |
| 20260510153447 | 51 | 103 | 0.9 | 0.9 | 0.00 | 0.00 | 0.00 | 50 | 1023.6 |
| 20260510152944 | 52 | 59 | 1.7 | 1.7 | 0.00 | 0.00 | 0.00 | 53 | 1023.3 |
| 20260510152441 | 51 | 197 | 1.7 | 1.7 | 0.00 | 0.00 | 0.00 | 50 | 1023.4 |
| 20260510151937 | 51 | 241 | 2.6 | 2.6 | 0.00 | 0.00 | 0.00 | 51 | 1023.5 |
| 20260510151434 | 52 | 206 | 1.7 | 1.7 | 0.00 | 0.00 | 0.00 | 52 | 1023.6 |
| 20260510150930 | 51 | 159 | 1.7 | 1.7 | 0.00 | 0.00 | 0.00 | 52 | 1023.5 |
| 20260510150426 | 51 | 64 | 2.6 | 2.6 | 0.00 | 0.00 | 0.00 | 50 | 1023.5 |
| 20260510145922 | 51 | 113 | 0.9 | 0.9 | 0.00 | 0.00 | 0.00 | 49 | 1023.4 |
| 20260510145413 | 52 | 97 | 1.7 | 1.7 | 0.00 | 0.00 | 0.00 | 51 | 1023.4 |
| 20260510144910 | 50 | 69 | 0.9 | 0.9 | 0.00 | 0.00 | 0.00 | 53 | 1023.5 |
| 20260510144407 | 51 | 19 | 1.7 | 1.7 | 0.00 | 0.00 | 0.00 | 53 | 1023.3 |
| 20260510143901 | 51 | 175 | 1.7 | 1.7 | 0.00 | 0.00 | 0.00 | 53 | 1023.4 |
| 20260510143357 | 50 | 109 | 0.0 | 0.0 | 0.00 | 0.00 | 0.00 | 54 | 1023.1 |
| 20260510142855 | 50 | 76 | 2.6 | 2.6 | 0.00 | 0.00 | 0.00 | 53 | 1023.3 |
| 20260510142351 | 49 | 75 | 0.0 | 0.0 | 0.00 | 0.00 | 0.00 | 55 | 1023.3 |
| 20260510141848 | 47 | 58 | 0.9 | 1.7 | 0.00 | 0.00 | 0.00 | 59 | 1023.5 |
| 20260510141345 | 48 | 56 | 0.9 | 0.9 | 0.00 | 0.00 | 0.00 | 57 | 1023.3 |
| 20260510140842 | 48 | 81 | 0.0 | 0.0 | 0.00 | 0.00 | 0.00 | 57 | 1023.3 |
| 20260510140338 | 48 | 36 | 0.9 | 0.9 | 0.00 | 0.00 | 0.00 | 56 | 1023.3 |
| 20260510135831 | 48 | 99 | 0.9 | 0.9 | 0.00 | 0.00 | 0.00 | 56 | 1023.2 |
| 20260510135327 | 47 | 114 | 0.0 | 0.0 | 0.00 | 0.00 | 0.00 | 59 | 1023.4 |
| 20260510134825 | 46 | 78 | 0.0 | 0.9 | 0.00 | 0.00 | 0.00 | 59 | 1023.4 |
| 20260510134322 | 45 | 114 | 0.0 | 0.9 | 0.00 | 0.00 | 0.00 | 63 | 1023.3 |
| 20260510133818 | 44 | 55 | 0.0 | 0.9 | 0.00 | 0.00 | 0.00 | 62 | 1023.4 |
| 20260510133314 | 43 | 29 | 2.6 | 2.6 | 0.00 | 0.00 | 0.00 | 64 | 1023.3 |
| 20260510132810 | 42 | 17 | 0.9 | 1.7 | 0.00 | 0.00 | 0.00 | 67 | 1023.0 |
| 20260510132308 | 41 | 44 | 0.9 | 0.9 | 0.00 | 0.00 | 0.00 | 67 | 1023.3 |
| 20260510131805 | 40 | 40 | 1.7 | 1.7 | 0.00 | 0.00 | 0.00 | 68 | 1023.2 |
| 20260510131303 | 39 | 25 | 0.9 | 1.7 | 0.00 | 0.00 | 0.00 | 69 | 1023.2 |
| 20260510130759 | 38 | 343 | 2.6 | 2.6 | 0.00 | 0.00 | 0.00 | 69 | 1023.1 |
| 20260510130256 | 39 | 17 | 0.9 | 1.7 | 0.00 | 0.00 | 0.00 | 68 | 1023.1 |
| 20260510125752 | 38 | 23 | 3.5 | 4.3 | 0.00 | 0.00 | 0.00 | 69 | 1023.1 |
| 20260510125248 | 39 | 31 | 3.5 | 4.3 | 0.00 | 0.00 | 0.00 | 67 | 1023.0 |
| 20260510124745 | 38 | 59 | 0.0 | 0.9 | 0.00 | 0.00 | 0.00 | 67 | 1022.8 |
| 20260510124243 | 38 | 61 | 0.0 | 0.0 | 0.00 | 0.00 | 0.00 | 69 | 1023.0 |
| 20260510123738 | 37 | 35 | 0.9 | 0.9 | 0.00 | 0.00 | 0.00 | 69 | 1022.5 |
| 20260510123234 | 37 | 42 | 0.9 | 0.9 | 0.00 | 0.00 | 0.00 | 70 | 1022.7 |
| 20260510122730 | 36 | 31 | 1.7 | 1.7 | 0.00 | 0.00 | 0.00 | 70 | 1022.5 |
| 20260510122227 | 36 | 84 | 0.0 | 0.0 | 0.00 | 0.00 | 0.00 | 71 | 1022.6 |
| 20260510121723 | 33 | 84 | 0.0 | 0.0 | 0.00 | 0.00 | 0.00 | 75 | 1022.7 |
| 20260510121220 | 32 | 87 | 0.0 | 0.0 | 0.00 | 0.00 | 0.00 | 76 | 1022.5 |
| 20260510120718 | 31 | 70 | 0.0 | 0.0 | 0.00 | 0.00 | 0.00 | 77 | 1022.4 |
| 20260510120214 | 31 | 130 | 0.0 | 0.0 | 0.00 | 0.00 | 0.00 | 77 | 1022.5 |
| 20260510115709 | 31 | 130 | 0.0 | 0.9 | 0.00 | 0.00 | 0.00 | 77 | 1022.2 |
| 20260510115208 | 31 | 104 | 0.0 | 0.9 | 0.00 | 0.00 | 0.00 | 78 | 1022.3 |
| 20260510114703 | 30 | 74 | 0.0 | 0.0 | 0.00 | 0.00 | 0.00 | 80 | 1022.2 |
| 20260510114200 | 30 | 70 | 0.0 | 0.0 | 0.00 | 0.00 | 0.00 | 80 | 1022.2 |
| 20260510113655 | 30 | 70 | 0.0 | 0.0 | 0.00 | 0.00 | 0.00 | 81 | 1021.9 |
| 20260510113152 | 30 | 70 | 0.0 | 0.0 | 0.00 | 0.00 | 0.00 | 80 | 1021.9 |
| 20260510112643 | 29 | 70 | 0.0 | 0.0 | 0.00 | 0.00 | 0.00 | 80 | 1021.9 |
| 20260510112140 | 29 | 70 | 0.0 | 0.0 | 0.00 | 0.00 | 0.00 | 79 | 1021.7 |
| 20260510111636 | 30 | 71 | 0.0 | 0.9 | 0.00 | 0.00 | 0.00 | 78 | 1021.5 |
| 20260510111132 | 30 | 105 | 0.0 | 0.0 | 0.00 | 0.00 | 0.00 | 78 | 1021.8 |
| 20260510110628 | 31 | 105 | 0.9 | 0.9 | 0.00 | 0.00 | 0.00 | 77 | 1021.8 |
| 20260510110126 | 32 | 84 | 0.0 | 0.9 | 0.00 | 0.00 | 0.00 | 73 | 1021.6 |
| 20260510105621 | 33 | 56 | 0.9 | 1.7 | 0.00 | 0.00 | 0.00 | 74 | 1021.5 |
| 20260510105115 | 33 | 55 | 0.9 | 1.7 | 0.00 | 0.00 | 0.00 | 74 | 1021.6 |
| 20260510104613 | 33 | 11 | 1.7 | 1.7 | 0.00 | 0.00 | 0.00 | 76 | 1021.5 |
| 20260510104109 | 31 | 51 | 0.0 | 0.0 | 0.00 | 0.00 | 0.00 | 75 | 1021.5 |
| 20260510103606 | 33 | 36 | 0.0 | 0.0 | 0.00 | 0.00 | 0.00 | 74 | 1021.5 |
| 20260510103102 | 34 | 24 | 0.0 | 0.0 | 0.00 | 0.00 | 0.00 | 72 | 1021.5 |
| 20260510102557 | 34 | 12 | 1.7 | 1.7 | 0.00 | 0.00 | 0.00 | 73 | 1021.4 |
| 20260510102054 | 32 | 346 | 1.7 | 1.7 | 0.00 | 0.00 | 0.00 | 75 | 1021.5 |
| 20260510101552 | 33 | 47 | 0.0 | 0.0 | 0.00 | 0.00 | 0.00 | 74 | 1021.4 |
| 20260510101050 | 33 | 30 | 0.9 | 1.7 | 0.00 | 0.00 | 0.00 | 73 | 1021.5 |
| 20260510100545 | 33 | 23 | 0.9 | 0.9 | 0.00 | 0.00 | 0.00 | 73 | 1021.4 |
| 20260510100043 | 34 | 29 | 0.9 | 1.7 | 0.00 | 0.00 | 0.00 | 72 | 1021.5 |
| 20260510095539 | 34 | 22 | 1.7 | 1.7 | 0.00 | 0.00 | 0.00 | 71 | 1021.3 |
| 20260510095038 | 34 | 22 | 0.9 | 1.7 | 0.00 | 0.00 | 0.00 | 70 | 1021.3 |
| 20260510094533 | 35 | 26 | 0.9 | 0.9 | 0.00 | 0.00 | 0.00 | 70 | 1021.3 |
| 20260510094028 | 34 | 20 | 1.7 | 1.7 | 0.00 | 0.00 | 0.00 | 70 | 1021.2 |
| 20260510093525 | 35 | 353 | 1.7 | 1.7 | 0.00 | 0.00 | 0.00 | 70 | 1021.1 |
| 20260510093022 | 34 | 22 | 2.6 | 2.6 | 0.00 | 0.00 | 0.00 | 71 | 1021.0 |
| 20260510092519 | 34 | 25 | 2.6 | 2.6 | 0.00 | 0.00 | 0.00 | 70 | 1020.9 |
| 20260510092018 | 34 | 2 | 2.6 | 2.6 | 0.00 | 0.00 | 0.00 | 70 | 1021.1 |
| 20260510091516 | 33 | 18 | 0.9 | 1.7 | 0.00 | 0.00 | 0.00 | 71 | 1021.0 |
| 20260510091011 | 33 | 11 | 0.9 | 0.9 | 0.00 | 0.00 | 0.00 | 70 | 1021.1 |
| 20260510090509 | 33 | 357 | 0.9 | 0.9 | 0.00 | 0.00 | 0.00 | 71 | 1020.9 |
| 20260510090004 | 33 | 331 | 0.9 | 0.9 | 0.00 | 0.00 | 0.00 | 71 | 1020.7 |
| 20260510085459 | 34 | 332 | 0.9 | 0.9 | 0.00 | 0.00 | 0.00 | 70 | 1020.8 |
| 20260510084955 | 34 | 13 | 0.0 | 0.9 | 0.00 | 0.00 | 0.00 | 69 | 1020.6 |
| 20260510084452 | 35 | 34 | 0.0 | 0.0 | 0.00 | 0.00 | 0.00 | 68 | 1020.7 |
| 20260510083949 | 35 | 13 | 0.9 | 1.7 | 0.00 | 0.00 | 0.00 | 67 | 1020.7 |
| 20260510083445 | 35 | 2 | 2.6 | 2.6 | 0.00 | 0.00 | 0.00 | 67 | 1020.3 |
| 20260510082941 | 36 | 357 | 1.7 | 1.7 | 0.00 | 0.00 | 0.00 | 66 | 1020.3 |
| 20260510082439 | 37 | 356 | 0.9 | 1.7 | 0.00 | 0.00 | 0.00 | 65 | 1020.3 |
| 20260510081938 | 37 | 6 | 2.6 | 2.6 | 0.00 | 0.00 | 0.00 | 65 | 1020.4 |
| 20260510081434 | 37 | 1 | 1.7 | 1.7 | 0.00 | 0.00 | 0.00 | 64 | 1020.4 |
| 20260510080930 | 37 | 16 | 2.6 | 2.6 | 0.00 | 0.00 | 0.00 | 64 | 1020.1 |
| 20260510080428 | 37 | 19 | 1.7 | 1.7 | 0.00 | 0.00 | 0.00 | 63 | 1020.3 |
| 20260510075925 | 38 | 359 | 2.6 | 2.6 | 0.00 | 0.00 | 0.00 | 63 | 1020.3 |
| 20260510075424 | 37 | 6 | 4.3 | 5.2 | 0.00 | 0.00 | 0.00 | 63 | 1020.1 |
| 20260510074921 | 37 | 355 | 2.6 | 4.3 | 0.00 | 0.00 | 0.00 | 63 | 1020.1 |
| 20260510074418 | 37 | 354 | 1.7 | 1.7 | 0.00 | 0.00 | 0.00 | 63 | 1019.9 |
| 20260510073914 | 37 | 22 | 1.7 | 1.7 | 0.00 | 0.00 | 0.00 | 63 | 1020.3 |
| 20260510073409 | 38 | 10 | 1.7 | 1.7 | 0.00 | 0.00 | 0.00 | 62 | 1019.9 |
| 20260510072906 | 38 | 26 | 0.9 | 0.9 | 0.00 | 0.00 | 0.00 | 62 | 1020.0 |
| 20260510072403 | 38 | 27 | 0.9 | 1.7 | 0.00 | 0.00 | 0.00 | 61 | 1020.0 |
| 20260510071858 | 38 | 25 | 0.9 | 1.7 | 0.00 | 0.00 | 0.00 | 61 | 1019.7 |
| 20260510071355 | 39 | 17 | 0.9 | 1.7 | 0.00 | 0.00 | 0.00 | 61 | 1019.9 |
| 20260510070854 | 38 | 24 | 1.7 | 1.7 | 0.00 | 0.00 | 0.00 | 61 | 1019.8 |
| 20260510070351 | 38 | 28 | 0.9 | 1.7 | 0.00 | 0.00 | 0.00 | 61 | 1019.7 |
| 20260510065851 | 37 | 26 | 0.9 | 0.9 | 0.00 | 0.00 | 0.00 | 62 | 1019.7 |
| 20260510065348 | 37 | 33 | 0.0 | 0.0 | 0.00 | 0.00 | 0.00 | 63 | 1019.5 |
| 20260510064844 | 36 | 33 | 0.0 | 0.0 | 0.00 | 0.00 | 0.00 | 63 | 1019.6 |
| 20260510064342 | 37 | 33 | 0.0 | 0.0 | 0.00 | 0.00 | 0.00 | 61 | 1019.6 |
| 20260510063838 | 38 | 33 | 0.0 | 0.0 | 0.00 | 0.00 | 0.00 | 60 | 1019.5 |
| 20260510063335 | 38 | 33 | 0.0 | 0.0 | 0.00 | 0.00 | 0.00 | 59 | 1019.4 |
| 20260510062831 | 39 | 33 | 0.0 | 0.9 | 0.00 | 0.00 | 0.00 | 59 | 1019.6 |
| 20260510062327 | 39 | 29 | 0.0 | 0.9 | 0.00 | 0.00 | 0.00 | 58 | 1019.5 |
| 20260510061822 | 39 | 27 | 0.0 | 0.9 | 0.00 | 0.00 | 0.00 | 57 | 1019.5 |
| 20260510061320 | 39 | 34 | 0.9 | 0.9 | 0.00 | 0.00 | 0.00 | 58 | 1019.6 |
| 20260510060815 | 40 | 2 | 0.9 | 0.9 | 0.00 | 0.00 | 0.00 | 56 | 1019.3 |
| 20260510060313 | 41 | 306 | 0.9 | 0.9 | 0.00 | 0.00 | 0.00 | 55 | 1019.3 |
| 20260510055809 | 41 | 340 | 0.9 | 0.9 | 0.00 | 0.00 | 0.00 | 55 | 1019.3 |
| 20260510055308 | 42 | 316 | 0.9 | 1.7 | 0.00 | 0.00 | 0.00 | 53 | 1019.2 |
| 20260510054807 | 42 | 8 | 0.9 | 0.9 | 0.00 | 0.00 | 0.00 | 53 | 1019.1 |
| 20260510054304 | 43 | 354 | 1.7 | 1.7 | 0.00 | 0.00 | 0.00 | 52 | 1019.0 |
| 20260510053804 | 43 | 342 | 2.6 | 2.6 | 0.00 | 0.00 | 0.00 | 50 | 1019.0 |
| 20260510053254 | 44 | 355 | 3.5 | 4.3 | 0.00 | 0.00 | 0.00 | 50 | 1019.1 |
| 20260510052750 | 43 | 342 | 3.5 | 4.3 | 0.00 | 0.00 | 0.00 | 51 | 1018.7 |
| 20260510052246 | 43 | 9 | 0.9 | 1.7 | 0.00 | 0.00 | 0.00 | 52 | 1018.6 |
| 20260510051742 | 42 | 348 | 1.7 | 1.7 | 0.00 | 0.00 | 0.00 | 52 | 1018.6 |
| 20260510051239 | 42 | 353 | 1.7 | 1.7 | 0.00 | 0.00 | 0.00 | 53 | 1018.6 |
| 20260510050736 | 41 | 2 | 1.7 | 1.7 | 0.00 | 0.00 | 0.00 | 54 | 1018.3 |
| 20260510050233 | 41 | 99 | 0.0 | 0.0 | 0.00 | 0.00 | 0.00 | 54 | 1018.2 |
| 20260510045730 | 42 | 152 | 0.9 | 0.9 | 0.00 | 0.03 | 0.03 | 53 | 1018.2 |
| 20260510045226 | 43 | 177 | 0.9 | 0.9 | 0.00 | 0.03 | 0.03 | 52 | 1018.0 |
| 20260510044723 | 42 | 168 | 0.9 | 0.9 | 0.00 | 0.03 | 0.03 | 52 | 1018.0 |
| 20260510044221 | 41 | 68 | 0.0 | 0.0 | 0.00 | 0.03 | 0.03 | 54 | 1017.9 |
| 20260510043716 | 42 | 70 | 0.0 | 0.0 | 0.00 | 0.03 | 0.03 | 53 | 1017.9 |
| 20260510043213 | 42 | 68 | 0.0 | 0.0 | 0.00 | 0.03 | 0.03 | 52 | 1017.8 |
| 20260510042710 | 41 | 68 | 0.0 | 0.0 | 0.00 | 0.03 | 0.03 | 53 | 1017.6 |
| 20260510042206 | 43 | 68 | 0.0 | 0.0 | 0.00 | 0.03 | 0.03 | 51 | 1017.6 |
| 20260510041703 | 44 | 56 | 0.0 | 0.0 | 0.00 | 0.03 | 0.03 | 50 | 1017.5 |
| 20260510041201 | 43 | 56 | 0.0 | 0.0 | 0.00 | 0.03 | 0.03 | 51 | 1017.7 |
| 20260510040657 | 42 | 59 | 0.9 | 0.9 | 0.00 | 0.03 | 0.03 | 53 | 1017.6 |
| 20260510040154 | 41 | 208 | 0.0 | 0.0 | 0.00 | 0.03 | 0.03 | 54 | 1017.7 |
| 20260510035650 | 42 | 208 | 0.0 | 0.0 | 0.00 | 0.03 | 0.03 | 53 | 1017.5 |
| 20260510035145 | 44 | 210 | 0.9 | 0.9 | 0.00 | 0.03 | 0.03 | 51 | 1017.5 |
| 20260510034642 | 46 | 50 | 0.0 | 0.0 | 0.00 | 0.03 | 0.03 | 47 | 1017.7 |
| 20260510034139 | 46 | 52 | 0.9 | 0.9 | 0.00 | 0.03 | 0.03 | 47 | 1017.7 |
| 20260510033635 | 47 | 47 | 0.9 | 0.9 | 0.00 | 0.03 | 0.03 | 46 | 1017.4 |
| 20260510033133 | 47 | 43 | 0.9 | 0.9 | 0.00 | 0.03 | 0.03 | 46 | 1017.5 |
| 20260510032630 | 47 | 47 | 0.9 | 0.9 | 0.00 | 0.03 | 0.03 | 46 | 1017.4 |
| 20260510032125 | 47 | 32 | 1.7 | 1.7 | 0.00 | 0.03 | 0.03 | 45 | 1017.3 |
| 20260510031620 | 47 | 37 | 0.9 | 0.9 | 0.00 | 0.03 | 0.03 | 45 | 1017.4 |
| 20260510031117 | 48 | 27 | 1.7 | 1.7 | 0.00 | 0.03 | 0.03 | 45 | 1017.3 |
| 20260510030611 | 48 | 25 | 1.7 | 1.7 | 0.00 | 0.03 | 0.03 | 44 | 1017.1 |
| 20260510030109 | 48 | 23 | 2.6 | 2.6 | 0.00 | 0.03 | 0.03 | 44 | 1017.3 |
| 20260510025606 | 48 | 37 | 1.7 | 1.7 | 0.00 | 0.03 | 0.03 | 44 | 1017.3 |
| 20260510025103 | 48 | 359 | 1.7 | 1.7 | 0.00 | 0.03 | 0.03 | 44 | 1017.4 |
| 20260510024600 | 48 | 44 | 0.9 | 0.9 | 0.00 | 0.03 | 0.03 | 44 | 1017.2 |
| 20260510024056 | 48 | 23 | 1.7 | 1.7 | 0.00 | 0.03 | 0.03 | 45 | 1017.2 |
| 20260510023547 | 48 | 24 | 1.7 | 1.7 | 0.00 | 0.03 | 0.03 | 46 | 1017.0 |
| 20260510023045 | 48 | 35 | 1.7 | 1.7 | 0.00 | 0.03 | 0.03 | 46 | 1017.1 |
| 20260510022543 | 48 | 37 | 0.9 | 0.9 | 0.00 | 0.03 | 0.03 | 45 | 1017.0 |
| 20260510022038 | 48 | 29 | 0.0 | 0.9 | 0.00 | 0.03 | 0.03 | 45 | 1017.0 |
| 20260510021535 | 49 | 26 | 1.7 | 1.7 | 0.00 | 0.03 | 0.03 | 45 | 1016.7 |
| 20260510021032 | 50 | 21 | 1.7 | 1.7 | 0.00 | 0.03 | 0.03 | 44 | 1016.4 |
| 20260510020527 | 50 | 21 | 0.9 | 0.9 | 0.00 | 0.03 | 0.03 | 43 | 1016.7 |
| 20260510020023 | 51 | 350 | 1.7 | 1.7 | 0.00 | 0.03 | 0.03 | 41 | 1016.6 |
| 20260510015518 | 52 | 17 | 1.7 | 1.7 | 0.00 | 0.03 | 0.03 | 42 | 1016.3 |
| 20260510015014 | 52 | 355 | 1.7 | 1.7 | 0.00 | 0.03 | 0.03 | 40 | 1016.4 |
| 20260510014511 | 53 | 322 | 2.6 | 2.6 | 0.00 | 0.03 | 0.03 | 40 | 1016.3 |
| 20260510014008 | 54 | 316 | 1.7 | 1.7 | 0.00 | 0.03 | 0.03 | 39 | 1016.2 |
| 20260510013502 | 55 | 321 | 2.6 | 2.6 | 0.00 | 0.03 | 0.03 | 38 | 1016.3 |
| 20260510012959 | 55 | 334 | 4.3 | 5.2 | 0.00 | 0.03 | 0.03 | 36 | 1016.2 |
| 20260510012453 | 56 | 316 | 4.3 | 5.2 | 0.00 | 0.03 | 0.03 | 35 | 1016.2 |
| 20260510011949 | 56 | 353 | 5.2 | 7.0 | 0.00 | 0.03 | 0.03 | 34 | 1016.2 |
| 20260510011444 | 57 | 320 | 5.2 | 7.0 | 0.00 | 0.03 | 0.03 | 34 | 1016.2 |
| 20260510010940 | 57 | 320 | 4.3 | 6.1 | 0.00 | 0.03 | 0.03 | 33 | 1016.2 |
| 20260510010437 | 57 | 321 | 4.3 | 6.1 | 0.00 | 0.03 | 0.03 | 33 | 1016.0 |
| 20260510005933 | 58 | 351 | 4.3 | 5.2 | 0.00 | 0.03 | 0.03 | 34 | 1016.1 |
| 20260510005424 | 58 | 334 | 5.2 | 6.1 | 0.00 | 0.03 | 0.03 | 33 | 1016.0 |
| 20260510004922 | 58 | 306 | 6.1 | 7.8 | 0.00 | 0.03 | 0.03 | 33 | 1015.7 |
| 20260510004419 | 58 | 308 | 7.8 | 8.7 | 0.00 | 0.03 | 0.03 | 32 | 1015.8 |
| 20260510003917 | 59 | 299 | 7.0 | 8.7 | 0.00 | 0.03 | 0.03 | 32 | 1015.8 |
| 20260510003414 | 59 | 331 | 7.0 | 8.7 | 0.00 | 0.03 | 0.03 | 32 | 1015.9 |
| 20260510002913 | 59 | 322 | 7.0 | 7.8 | 0.00 | 0.03 | 0.03 | 33 | 1015.7 |
| 20260510002410 | 59 | 313 | 8.7 | 8.7 | 0.00 | 0.03 | 0.03 | 32 | 1015.9 |
| 20260510001906 | 59 | 303 | 8.7 | 11.3 | 0.00 | 0.03 | 0.03 | 33 | 1015.7 |
| 20260510001404 | 59 | 301 | 7.8 | 9.6 | 0.00 | 0.03 | 0.03 | 33 | 1015.9 |
| 20260510000901 | 59 | 324 | 5.2 | 7.0 | 0.00 | 0.03 | 0.03 | 33 | 1015.7 |
| 20260510000358 | 59 | 359 | 7.0 | 8.7 | 0.00 | 0.03 | 0.03 | 32 | 1015.7 |
| 20260509235854 | 59 | 352 | 6.1 | 7.8 | 0.00 | 0.03 | 0.03 | 33 | 1015.9 |
| 20260509235350 | 59 | 323 | 6.1 | 7.0 | 0.00 | 0.03 | 0.03 | 33 | 1015.6 |
| 20260509234847 | 59 | 321 | 7.8 | 11.3 | 0.00 | 0.03 | 0.03 | 33 | 1015.9 |
| 20260509234343 | 60 | 332 | 5.2 | 6.1 | 0.00 | 0.03 | 0.03 | 35 | 1015.7 |
| 20260509233842 | 60 | 285 | 7.8 | 9.6 | 0.00 | 0.03 | 0.03 | 33 | 1015.6 |
| 20260509233334 | 60 | 283 | 7.8 | 8.7 | 0.00 | 0.03 | 0.03 | 34 | 1015.6 |
| 20260509232829 | 59 | 289 | 6.1 | 7.0 | 0.00 | 0.03 | 0.03 | 36 | 1015.7 |
| 20260509232327 | 60 | 277 | 7.0 | 7.8 | 0.00 | 0.03 | 0.03 | 36 | 1015.5 |
| 20260509231823 | 60 | 266 | 10.4 | 12.2 | 0.00 | 0.03 | 0.03 | 35 | 1015.5 |
| 20260509231320 | 60 | 311 | 5.2 | 6.1 | 0.00 | 0.03 | 0.03 | 36 | 1015.7 |
| 20260509230818 | 60 | 307 | 6.1 | 7.8 | 0.00 | 0.03 | 0.03 | 34 | 1015.6 |
| 20260509230315 | 60 | 305 | 7.8 | 8.7 | 0.00 | 0.03 | 0.03 | 34 | 1015.6 |
| 20260509225809 | 60 | 316 | 7.0 | 8.7 | 0.00 | 0.03 | 0.03 | 35 | 1015.5 |
| 20260509225307 | 59 | 320 | 6.1 | 7.0 | 0.00 | 0.03 | 0.03 | 35 | 1015.8 |
| 20260509224803 | 60 | 313 | 8.7 | 12.2 | 0.00 | 0.03 | 0.03 | 34 | 1015.5 |
| 20260509224259 | 59 | 347 | 3.5 | 4.3 | 0.00 | 0.03 | 0.03 | 34 | 1015.3 |
| 20260509223756 | 59 | 327 | 8.7 | 11.3 | 0.00 | 0.03 | 0.03 | 34 | 1015.6 |
| 20260509223253 | 59 | 342 | 11.3 | 13.0 | 0.00 | 0.03 | 0.03 | 33 | 1015.5 |
| 20260509222749 | 59 | 320 | 8.7 | 9.6 | 0.00 | 0.03 | 0.03 | 34 | 1015.6 |
| 20260509222245 | 60 | 315 | 7.8 | 8.7 | 0.00 | 0.03 | 0.03 | 34 | 1015.3 |
| 20260509221740 | 60 | 343 | 6.1 | 7.8 | 0.00 | 0.03 | 0.03 | 35 | 1015.7 |
| 20260509221237 | 59 | 298 | 7.8 | 8.7 | 0.00 | 0.03 | 0.03 | 35 | 1015.7 |
| 20260509220733 | 59 | 349 | 7.0 | 8.7 | 0.00 | 0.03 | 0.03 | 35 | 1015.6 |
| 20260509220230 | 59 | 338 | 7.0 | 8.7 | 0.00 | 0.03 | 0.03 | 35 | 1015.8 |
| 20260509215725 | 59 | 336 | 8.7 | 12.2 | 0.00 | 0.03 | 0.03 | 36 | 1015.5 |
| 20260509215221 | 59 | 324 | 7.8 | 8.7 | 0.00 | 0.03 | 0.03 | 36 | 1015.8 |